Location: New York
(40.7127°N, 74.0060°W)
Time: 18:52:55
(UTC-04:00)

VELOX 1 - Pass Details

Date: 28 April 2024
Orbit: 605 x 617 km, 98.3° (Epoch: 27 May)

Event Time Altitude Azimuth Distance (km) Brightness Sun altitude
Rises 20:53:51 0° 14° (NNE) 2,901 ? -11.8°
Reaches altitude 10° 20:56:03 10° 16° (NNE) 1,991 ? -12.1°
Maximum altitude 21:00:22 78° 102° (ESE) 637 ? -12.8°
Drops below altitude 10° 21:04:40 10° 190° (S) 1,972 ? -13.5°
Sets 21:06:50 0° 191° (SSW) 2,871 ? -13.8°
